Regional Weather Roundup
Issued by NWS

Home | Current Version | Previous Version | Graphics & Text | Print | Product List | Glossary On
Versions: 1 2 3 4 5 6 7 8 9 10 11 12 13 14 15 16 17 18 19 20 21 22 23 24 25 26 27 28 29 30 31 32 33 34 35 36 37 38 39 40 41 42 43 44 45 46 47 48 49 50
000
ASUS43 KOAX 211402
RWRNE

WEATHER ROUNDUP FOR NEBRASKA
NATIONAL WEATHER SERVICE OMAHA NE
900 AM CDT TUE OCT 21 2014

NOTES: SATELLITE DATA IS BEING USED TO AUGMENT CLOUD COVER ABOVE
       12000 FEET.
       "FAIR" INDICATES FEW OR NO CLOUDS BELOW 12,000 FEET WITH NO
       SIGNIFICANT WEATHER AND/OR OBSTRUCTIONS TO VISIBILITY.

  * THESE STATIONS DO NOT REPORT WEATHER SUCH AS RAIN...SNOW OR FOG.

NEZ001>004-019>022-054>056-211500-
NEBRASKA PANHANDLE

CITY           SKY/WX    TMP DP  RH WIND       PRES   REMARKS
SCOTTSBLUFF    CLEAR     44  41  89 E6        29.97R
ALLIANCE       CLEAR     46  43  89 S7        29.96S
CHADRON        CLEAR     46  41  82 W5        29.90S
KIMBALL        CLEAR     43  39  88 W5        30.00R
SIDNEY         CLEAR     47  45  93 S7        30.00R
$$

NEZ057>060-069>072-079>082-211500-
SOUTHWEST NEBRASKA

CITY           SKY/WX    TMP DP  RH WIND       PRES   REMARKS
NORTH PLATTE   CLEAR     52  44  74 S6        30.05R
IMPERIAL       CLEAR     53  50  89 SE10      30.03S
LEXINGTON      SUNNY     45  42  91 SE5       30.07S
MCCOOK         SUNNY     46  40  79 CALM      30.07R
OGALLALA       CLEAR     46  42  85 CALM      30.02S
$$

NEZ005>010-023>029-035>040-094-211500-
NORTH CENTRAL NEBRASKA

CITY           SKY/WX    TMP DP  RH WIND       PRES   REMARKS
VALENTINE      CLEAR     52  40  63 S14       29.96S
AINSWORTH      CLEAR     51  40  67 S10       29.99S
BROKEN BOW     SUNNY     45  41  86 CALM      30.06R
O`NEILL        SUNNY     48  43  82 SE7       30.04R
ORD            SUNNY     42  39  89 CALM      30.06R
THEDFORD       CLEAR     53  41  65 S9        30.03R
$$

NEZ041-046>049-061>064-073>077-083>087-211500-
SOUTH CENTRAL NEBRASKA

CITY           SKY/WX    TMP DP  RH WIND       PRES   REMARKS
GRAND ISLAND   SUNNY     50  43  77 S5        30.09R
AURORA         SUNNY     45  40  82 SE3       30.10R HAZE
HASTINGS       SUNNY     49  41  74 S3        30.09R
HEBRON         SUNNY     41  37  86 CALM      30.11R
HOLDREGE       SUNNY     48  41  78 CALM      30.09R
KEARNEY *      SUNNY     45  41  87 S5        30.09R
YORK           SUNNY     46  39  76 S6        30.10S
$$

NEZ011>018-030>034-042>045-211500-
NORTHEAST NEBRASKA

CITY           SKY/WX    TMP DP  RH WIND       PRES   REMARKS
NORFOLK        SUNNY     47  39  74 E3        30.07S
ALBION         SUNNY     44  38  81 SE3       30.08S
BLAIR          SUNNY     51  42  72 CALM      30.11S
COLUMBUS *     SUNNY     45  37  76 CALM      30.11R
FREMONT          N/A     48  44  86 E3        30.11S FOG
TEKAMAH        SUNNY     43  40  89 CALM      30.12R
WAYNE          SUNNY     41  38  87 CALM      30.10R
$$

NEZ050>053-065>068-078-088>093-211500-
SOUTHEAST NEBRASKA

CITY           SKY/WX    TMP DP  RH WIND       PRES   REMARKS
LINCOLN        SUNNY     43  38  82 CALM      30.13R
OMAHA EPPLEY   SUNNY     45  39  79 CALM      30.14R
BEATRICE       SUNNY     44  38  80 CALM      30.11S HAZE
FALLS CITY     SUNNY     43  40  89 CALM      30.13R
NEBRASKA CITY  SUNNY     49  40  73 CALM      30.13R
PLATTSMOUTH    SUNNY     48  42  79 CALM      30.13R
$$

NEZ044-045-051>053-067-211500-
OMAHA AREA

CITY           SKY/WX    TMP DP  RH WIND       PRES   REMARKS
OMAHA EPPLEY   SUNNY     45  39  79 CALM      30.14R
BLAIR          SUNNY     51  42  72 CALM      30.11S
FREMONT          N/A     48  44  86 E3        30.11S FOG
MILLARD        SUNNY     44  43  94 CALM      30.13R
OFFUTT AFB     SUNNY     43  43 100 CALM      30.13R
PLATTSMOUTH    SUNNY     48  42  79 CALM      30.13R
WAHOO          FAIR      44  39  84 SE3       30.11R
$$


USA.gov is the U.S. government's official web portal to all federal, state and local government web resources and services.